Palm Springs, CA

2:49 PM PST on November 19, 2017 (GMT -0800)
Palm Springs International

Weather History for KPSP - December, 2010

Change the Weather History Date:

Friday, December 17, 2010

  Actual Average Record
Temperature  
Mean Temperature 55 °F 55 °F  
Max Temperature 61 °F 66 °F 86 °F (1950)
Min Temperature 49 °F 44 °F 30 °F (1945)
Degree Days  
Heating Degree Days 10 10  
Month to date heating degree days 67 153  
Since 1 July heating degree days 201 249  
Cooling Degree Days 0 0  
Month to date cooling degree days 12 0  
Year to date cooling degree days 4102 4137  
Growing Degree Days 5 (Base 50)    
Moisture  
Dew Point 45 °F    
Average Humidity 61    
Maximum Humidity 71    
Minimum Humidity 51    
Precipitation  
Precipitation T in 0.02 in 1.62 in (2008)
Month to date precipitation T 0.37  
Year to date precipitation 5.89 5.23  
Since 1 July precipitation 0.55  
Snow  
Snow 0.00 in - - ()
Month to date snowfall 0.0  
Year to date snowfall 0.0  
Snow Depth 0.00 in    
Sea Level Pressure  
Sea Level Pressure 29.97 in    
Wind  
Wind Speed 2 mph (SW)    
Max Wind Speed 12 mph    
Max Gust Speed 14 mph    
Visibility 10 miles    
Events Rain    
T = Trace of Precipitation, MM = Missing Value Source: NWS Daily Summary

Daily Weather History Graph

Daily Weather History Graph

Search for Another Location

Airport or City:

Trip Planner

Search our weather history database for the weather conditions in past years. The results will help you decide how hot, cold, wet, or windy it might be!

Date:

Astronomy

Dec. 17, 2010 Rise Set
Actual Time 6:44 AM PST 4:39 PM PST
Civil Twilight 6:17 AM PST 5:07 PM PST
Nautical Twilight 5:46 AM PST 5:38 PM PST
Astronomical Twilight 5:15 AM PST 6:08 PM PST
Moon 1:46 PM PST (12/17) 3:11 AM PST (12/17)
Length of Visible Light 10h 50m
Length of Day
9h 54m
Waxing Gibbous, 87% of the Moon is Illuminated
Dec 17
Waxing Gibbous
Dec 21
Full
Dec 27
Last Quarter
Jan 4
New
Jan 12
First Quarter

Hourly Weather History & Observations

Time (PST) Temp. Dew Point Humidity Pressure Visibility Wind Dir Wind Speed Gust Speed Precip Events Conditions
12:53 AM 51.8 °F 39.2 °F 62% 29.92 in 10.0 mi Calm Calm - N/A   Clear
1:53 AM 50.0 °F 41.0 °F 71% 29.93 in 10.0 mi Calm Calm - N/A   Clear
2:53 AM 52.0 °F 39.9 °F 63% 29.92 in 10.0 mi Calm Calm - N/A   Clear
4:53 AM 52.0 °F 41.0 °F 66% 29.92 in 10.0 mi SW 3.5 mph - N/A   Scattered Clouds
5:53 AM 51.1 °F 41.0 °F 68% 29.95 in 10.0 mi Calm Calm - N/A   Clear
6:53 AM 53.1 °F 41.0 °F 64% 29.96 in 10.0 mi Calm Calm - N/A   Scattered Clouds
7:53 AM 54.0 °F 42.1 °F 64% 29.98 in 10.0 mi Calm Calm - N/A   Overcast
8:53 AM 54.0 °F 44.1 °F 69% 30.01 in 10.0 mi SE 3.5 mph - 0.00 in Rain Light Rain
9:53 AM 57.0 °F 44.1 °F 62% 30.02 in 10.0 mi Calm Calm - 0.00 in   Mostly Cloudy
10:53 AM 59.0 °F 42.1 °F 53% 30.01 in 10.0 mi Calm Calm - N/A   Overcast
11:53 AM 60.1 °F 43.0 °F 53% 29.97 in 10.0 mi Calm Calm - N/A   Overcast
12:53 PM 60.8 °F 42.8 °F 52% 29.96 in 10.0 mi SW 5.8 mph - N/A   Mostly Cloudy
1:53 PM 59.0 °F 45.0 °F 60% 29.95 in 10.0 mi SSW 9.2 mph - N/A   Mostly Cloudy
2:53 PM 57.9 °F 46.9 °F 67% 29.95 in 10.0 mi SW 9.2 mph - N/A   Overcast
3:53 PM 57.0 °F 48.0 °F 72% 29.97 in 10.0 mi SW 6.9 mph - N/A   Overcast
4:53 PM 57.0 °F 48.0 °F 72% 29.97 in 10.0 mi SSW 9.2 mph - N/A   Overcast
5:53 PM 57.0 °F 48.0 °F 72% 29.97 in 10.0 mi SW 6.9 mph - N/A   Overcast
6:53 PM 57.0 °F 48.0 °F 72% 29.97 in 10.0 mi Variable 4.6 mph - N/A   Overcast
7:53 PM 55.0 °F 48.9 °F 80% 29.98 in 10.0 mi West 4.6 mph - N/A   Overcast
8:53 PM 55.9 °F 50.0 °F 80% 29.98 in 10.0 mi West 3.5 mph - N/A   Overcast
9:53 PM 55.9 °F 51.1 °F 84% 29.98 in 10.0 mi West 4.6 mph - N/A   Overcast
10:53 PM 57.0 °F 51.1 °F 81% 29.97 in 10.0 mi SW 3.5 mph - N/A   Overcast
11:53 PM 57.0 °F 51.1 °F 81% 29.96 in 10.0 mi Calm Calm - N/A   Overcast